Theta_e
331 325 321 320 322 320 328 331 328 329 330 330 330 333 339 338 343 346 338 338 333 335 334 333 332 334 336 335 336 336 336 335 335 334 332 330 330 330 327 327 328 328 328 328 328 328 328 324 324
332 324 320 318 322 327 328 328 329 330 329 329 330 333 338 340 336 335 339 338 336 334 334 333 329 329 334 335 335 334 333 332 332 331 331 329 330 330 328 328 327 327 328 327 326 326 325 321 323
330 325 318 323 323 327 328 328 329 328 329 331 332 333 336 339 335 336 339 338 337 336 333 329 327 327 330 333 333 331 331 331 329 329 330 329 329 330 328 326 327 328 328 327 325 324 320 322 322
327 322 317 321 325 325 325 329 328 328 327 328 332 337 334 335 335 337 338 338 336 334 329 329 329 329 328 329 329 329 329 328 329 330 329 328 326 328 327 325 327 327 327 327 325 317 317 320 322
325 319 323 325 325 323 321 328 327 327 327 329 329 337 336 335 336 336 337 337 335 329 327 329 331 330 328 328 328 328 328 327 327 328 328 327 325 327 326 325 326 327 327 325 318 316 318 320 322
325 320 324 327 326 321 319 321 327 326 326 327 334 334 334 333 335 336 337 336 335 328 327 329 333 332 329 327 327 327 326 326 326 326 327 327 325 324 326 327 326 326 326 320 318 317 317 320 321
326 329 326 326 327 321 321 322 324 325 327 328 326 338 334 333 334 336 336 336 335 331 326 329 333 332 327 323 327 326 325 326 326 324 325 325 326 325 323 325 325 324 319 318 318 317 317 320 321
321 326 330 326 328 328 323 324 324 324 328 326 327 336 335 334 334 335 335 334 335 333 326 326 334 332 328 325 326 326 326 326 325 324 324 324 325 324 323 319 318 319 319 319 318 318 318 321 322
318 325 329 328 328 326 322 324 322 323 325 327 330 332 332 334 334 335 335 335 335 333 330 325 332 332 329 325 327 327 326 326 325 324 322 322 323 322 320 316 315 316 317 318 319 321 321 322 322
325 328 327 322 317 319 323 322 322 324 327 329 335 333 333 334 335 334 334 335 334 333 331 328 329 330 330 327 324 326 326 326 321 324 325 325 326 323 316 315 315 318 318 318 321 322 322 322 322
326 332 324 320 317 315 319 322 322 321 327 328 334 335 333 334 335 334 333 334 334 334 331 330 330 330 328 328 326 326 324 322 322 326 326 326 326 321 316 316 316 317 319 321 321 321 321 322 322
328 328 323 319 315 315 317 318 322 320 321 321 333 333 333 334 334 333 332 333 334 335 333 330 329 329 328 325 325 324 326 328 324 327 326 325 325 322 321 321 319 321 321 321 322 320 321 322 322
330 329 318 317 317 314 315 317 320 320 319 325 333 331 331 334 334 333 332 332 332 334 334 330 329 329 328 323 326 323 327 329 327 328 327 323 322 324 323 322 322 321 321 322 322 323 323 323 323
327 328 320 319 318 312 315 317 316 317 322 333 332 330 330 332 332 332 332 331 330 332 334 333 329 328 328 326 328 325 325 326 327 327 325 323 324 323 323 322 323 323 323 323 324 324 324 323 322
327 328 321 320 319 314 313 318 315 315 319 332 331 330 330 331 332 332 332 329 330 329 332 335 330 328 327 327 327 326 325 323 325 325 324 325 325 323 323 323 325 325 324 324 324 324 323 323 323
326 325 330 324 318 314 313 326 323 315 315 326 329 329 331 330 332 332 332 330 329 329 330 333 333 330 328 327 326 326 325 324 324 323 324 325 326 325 324 325 326 326 325 324 323 324 324 324 323
324 328 328 325 317 313 315 325 320 315 315 316 322 328 331 331 331 333 332 331 329 328 328 331 332 332 330 330 328 325 325 325 325 324 325 325 325 325 325 326 326 326 325 323 324 325 324 324 323
328 332 325 328 321 314 313 314 316 314 313 314 314 319 328 331 331 332 334 332 330 328 327 328 330 331 331 330 329 328 326 325 325 325 326 326 325 325 325 325 326 326 325 324 325 324 322 321 323
326 329 330 323 319 317 316 315 315 315 311 311 312 312 320 328 331 332 333 333 332 329 327 328 328 328 330 329 327 328 328 326 325 324 326 326 326 325 325 325 326 326 326 325 325 323 322 322 320
328 331 330 323 318 318 319 319 317 317 315 311 311 311 311 322 323 329 331 333 332 331 326 327 327 327 329 330 329 327 327 328 326 325 325 326 326 327 326 326 326 326 326 326 325 323 323 322 322
335 333 331 325 320 320 320 324 321 320 319 319 314 312 312 312 323 324 329 331 333 332 330 326 326 326 327 328 328 328 326 327 328 327 326 326 326 328 328 327 325 325 326 323 323 323 323 322 323
335 332 334 322 326 331 322 332 323 324 323 322 322 317 314 311 315 323 328 330 332 332 333 326 324 326 327 327 327 326 326 326 327 328 327 327 327 328 329 328 326 325 325 325 322 322 322 322 323
333 323 322 323 316 321 318 323 319 319 324 324 323 321 316 311 310 316 325 328 331 332 331 328 324 325 326 327 326 326 326 326 326 327 327 327 326 327 328 329 328 326 324 324 324 324 324 323 324
315 319 321 318 322 330 321 323 322 321 320 323 320 320 319 313 310 309 321 326 328 331 332 330 326 323 324 325 326 326 326 325 325 327 327 327 327 327 328 328 329 327 326 325 325 324 324 324 325
320 328 327 329 330 331 318 320 326 319 318 318 317 315 316 315 313 311 309 321 326 329 331 332 331 328 324 324 325 325 325 325 326 326 328 328 329 328 328 329 329 329 327 327 325 325 325 325 325
323 328 329 330 327 323 311 322 320 317 317 314 312 311 310 309 311 311 311 314 323 327 330 331 332 332 331 327 325 325 325 325 326 327 328 329 330 330 329 329 330 329 328 327 326 325 326 325 324
321 326 317 312 301 315 315 314 313 313 313 311 308 310 308 309 308 310 308 311 318 324 327 330 332 332 332 332 331 328 326 326 328 329 330 330 330 330 330 330 330 330 329 328 326 325 326 326 325
322 318 323 318 316 318 316 315 316 312 313 311 310 307 307 307 308 307 307 310 311 318 323 327 329 330 332 332 333 333 332 330 329 330 331 331 331 331 331 331 331 331 330 329 327 326 326 326 325
319 322 319 317 316 318 319 317 310 313 310 310 308 307 307 306 304 304 304 307 309 310 312 319 325 327 328 329 330 331 332 333 333 332 332 332 332 332 332 332 332 331 330 329 327 326 326 325 324
316 323 318 324 321 316 316 316 310 309 306 307 306 305 304 304 303 303 304 306 307 307 307 308 310 311 314 321 326 327 328 328 330 331 332 332 332 331 331 331 331 330 329 329 326 324 324 323 322
Wind_Speed
22 23 20 3 4 5 3 1 4 5 4 2 2 7 9 3 5 6 14 21 25 21 17 14 12 14 16 17 16 16 17 17 17 17 20 19 19 20 18 20 21 20 19 20 19 19 19 22 22
22 24 5 1 4 2 4 1 6 4 5 5 8 7 6 3 3 11 14 24 21 20 19 15 14 15 16 16 17 18 18 16 14 17 18 17 18 18 19 20 20 19 19 20 20 19 19 21 23
20 18 2 2 2 2 3 4 7 4 5 3 4 6 4 2 5 5 25 24 22 18 18 17 17 18 18 17 16 16 14 15 17 16 17 17 18 19 19 18 18 19 19 19 19 20 22 24 23
11 7 3 2 3 5 5 7 7 4 4 4 5 7 4 6 8 15 27 28 23 20 19 19 19 19 20 19 17 18 17 17 18 18 17 17 15 18 16 16 17 17 18 18 19 21 21 22 23
5 1 1 1 5 2 4 8 7 5 5 1 6 4 3 5 15 23 29 25 22 21 20 19 18 19 18 19 21 20 18 17 16 17 17 15 16 16 16 16 16 15 16 17 19 20 22 23 23
3 0 2 3 6 3 1 7 7 6 4 4 6 6 3 6 14 21 22 23 20 21 19 19 18 19 20 17 21 21 19 18 16 17 16 15 14 12 15 15 15 15 15 16 17 19 20 20 21
0 1 3 4 2 3 4 4 5 7 6 3 8 5 4 10 18 21 24 23 20 19 18 18 17 19 19 19 22 19 19 21 18 16 18 16 16 13 12 14 14 14 15 15 16 17 19 20 20
3 0 3 4 2 2 3 4 3 5 2 2 5 5 6 16 21 26 25 21 21 18 16 18 19 20 19 21 21 20 19 20 16 18 18 17 16 13 12 13 13 13 13 15 16 17 17 17 16
6 1 3 4 3 3 5 3 3 2 7 5 4 3 8 30 24 25 23 23 20 19 17 17 19 20 19 19 20 20 19 18 14 17 15 15 15 13 11 12 12 12 12 13 14 14 14 14 13
3 3 5 4 3 2 3 4 6 4 5 4 5 10 24 29 24 21 18 19 25 25 21 18 19 18 19 19 18 18 19 18 15 16 15 14 12 9 10 11 11 11 12 12 12 9 9 10 10
3 5 4 1 3 4 4 4 2 7 2 7 8 13 16 19 17 18 16 23 25 26 24 19 22 18 17 21 19 17 18 18 19 15 12 12 11 8 10 10 10 11 10 9 7 7 7 7 7
2 7 2 7 4 3 4 3 4 5 5 4 17 21 20 17 17 20 19 26 22 24 25 22 21 22 17 20 20 19 18 16 16 14 13 13 12 10 9 9 9 9 7 7 5 5 7 7 7
3 4 4 5 6 3 5 3 3 5 1 10 19 18 15 17 21 23 22 25 26 24 26 26 25 23 20 22 20 21 19 17 16 15 14 13 13 10 9 7 7 7 7 7 6 6 6 5 5
8 10 3 4 3 5 4 4 4 3 8 13 17 14 13 19 23 22 25 27 30 31 28 29 27 26 22 21 21 20 20 21 20 18 17 16 12 13 12 10 8 7 8 7 6 5 5 3 3
4 5 4 5 5 4 1 6 6 5 8 12 11 11 12 18 22 26 31 28 34 32 32 31 29 26 25 23 22 20 18 19 21 19 18 16 15 14 13 12 11 9 9 9 8 7 6 5 2
6 5 3 5 8 6 7 14 7 8 9 11 11 11 13 14 24 24 32 30 33 32 34 32 32 28 26 24 23 24 20 19 20 18 18 19 17 16 16 14 13 12 10 10 9 7 5 4 4
4 4 5 3 10 4 8 7 9 8 11 11 10 12 13 12 19 26 33 35 34 34 36 32 33 33 29 26 23 24 23 23 24 22 21 22 23 20 19 17 15 14 12 13 12 10 9 8 6
6 3 6 8 7 5 7 8 6 5 7 10 10 10 13 14 19 29 32 34 33 35 36 37 34 34 33 29 28 24 25 26 25 26 26 23 23 23 20 19 17 17 16 17 16 15 12 9 7
12 8 10 9 8 7 15 6 12 8 6 8 9 8 10 16 25 30 34 32 38 36 34 39 38 37 35 33 32 34 32 30 29 28 26 25 23 24 23 21 19 18 18 20 18 15 14 12 9
8 14 8 3 8 9 6 14 8 9 7 9 10 10 10 10 9 23 29 33 39 39 38 38 39 37 41 38 36 31 34 33 32 30 29 28 26 25 26 25 24 23 21 19 20 19 17 15 13
10 12 7 5 5 1 3 6 8 8 15 10 13 9 10 13 15 13 24 34 37 39 41 42 42 40 39 38 34 31 26 29 31 31 31 33 30 29 27 28 28 26 26 22 22 23 21 20 17
16 7 5 7 12 4 6 5 5 12 15 17 20 12 15 11 10 15 25 29 35 42 43 44 43 42 41 39 36 34 32 30 33 38 38 36 34 34 33 31 31 31 29 28 26 26 26 23 20
6 7 8 4 4 4 3 1 7 4 9 18 18 15 11 11 10 11 22 31 38 34 41 44 43 43 42 41 38 37 32 31 29 33 36 37 37 38 38 36 34 35 34 32 30 28 28 25 25
11 7 8 5 2 4 8 7 5 5 6 4 8 13 12 10 11 10 25 28 29 33 36 40 40 41 42 42 44 40 36 32 29 32 36 37 38 40 41 40 39 39 38 36 35 35 33 30 30
7 11 3 3 4 7 2 5 9 7 6 4 4 7 9 9 10 12 11 20 24 32 38 38 39 38 39 40 40 42 41 38 36 36 36 32 35 36 42 42 41 43 42 40 37 37 37 34 33
12 9 5 7 5 4 1 7 6 9 11 6 6 5 6 6 8 10 14 22 26 33 35 35 35 38 39 42 45 45 43 39 39 38 36 36 37 38 37 39 43 44 44 43 41 41 40 37 35
5 5 4 6 2 3 4 6 8 9 8 5 6 4 7 5 2 9 10 17 26 30 34 39 39 40 33 39 37 35 40 41 37 36 34 36 39 39 40 40 39 42 45 46 44 44 42 39 36
13 11 5 1 5 3 4 4 6 5 7 7 6 8 7 6 4 1 4 12 18 23 32 35 38 41 42 38 39 39 38 39 40 34 37 36 37 38 40 41 41 39 40 43 44 44 42 39 37
5 11 4 6 5 5 3 6 7 10 7 8 8 8 8 6 5 5 4 6 8 12 16 22 27 31 33 34 37 38 39 40 40 40 42 42 42 40 39 40 39 40 38 39 41 44 42 39 39
4 13 4 7 6 3 3 5 4 6 8 7 7 7 5 5 5 4 4 5 7 10 12 15 18 23 28 30 32 37 39 37 36 39 42 42 41 39 37 38 38 38 39 39 39 41 42 41 39
Wind_Direction
328 336 335 339 37 64 287 337 130 105 58 57 84 82 112 39 49 125 124 145 140 137 135 128 127 126 122 114 114 114 105 100 100 99 102 102 98 91 94 89 88 85 86 86 85 83 84 94 93
328 335 348 46 87 37 287 172 94 91 131 104 63 119 47 71 40 111 115 136 137 138 134 129 128 129 128 122 113 104 97 98 101 107 103 99 110 104 103 97 91 88 88 87 83 84 86 92 93
326 325 52 80 132 203 174 114 129 119 118 110 94 60 85 91 92 108 138 132 135 135 138 131 126 127 130 129 117 107 104 107 107 113 107 108 114 103 103 99 95 93 91 86 84 85 93 98 96
331 338 359 72 260 293 136 152 131 101 21 51 106 67 49 108 140 138 142 140 137 137 139 133 127 120 115 114 118 110 111 114 120 115 115 108 117 109 106 105 101 95 92 88 86 90 100 102 99
318 344 16 287 278 229 112 152 138 128 153 182 112 142 75 62 131 140 144 143 138 134 137 134 131 124 119 121 121 121 121 122 125 125 120 114 117 118 109 109 99 98 96 94 94 96 103 105 102
317 61 50 232 259 156 19 137 145 141 144 125 80 103 152 133 154 145 145 142 141 136 135 134 133 138 130 128 129 128 130 129 126 126 123 118 114 121 125 109 106 106 103 102 101 101 102 104 99
355 19 246 269 286 222 167 131 136 143 129 167 134 94 169 172 166 147 146 142 139 137 141 139 137 142 133 132 134 140 138 131 135 130 132 130 125 122 126 124 116 113 109 106 103 100 101 102 99
297 129 289 278 258 308 170 114 70 103 131 83 125 156 170 186 165 144 144 144 144 141 146 148 146 148 140 138 141 139 141 148 141 139 138 139 137 148 147 127 118 116 112 106 102 99 96 93 89
314 312 235 253 293 221 174 116 47 50 101 57 25 138 174 163 164 137 146 148 147 151 153 156 156 154 150 145 149 145 145 146 147 145 136 144 149 149 134 126 121 117 115 111 106 100 94 89 84
186 214 227 10 13 335 177 117 131 109 115 65 61 62 140 156 158 159 152 154 158 161 163 162 165 169 162 155 156 158 160 158 150 140 132 144 146 146 139 133 126 121 115 114 108 102 97 100 93
195 195 10 24 309 26 292 122 103 124 227 189 175 149 152 156 160 169 159 169 168 169 168 169 174 177 179 170 165 166 161 159 150 145 158 159 161 147 151 142 137 131 123 119 119 115 118 119 120
177 266 316 311 340 360 332 329 173 176 210 185 158 155 159 172 173 180 167 169 163 180 172 173 179 180 187 182 174 171 168 163 163 160 168 184 183 160 147 147 142 145 146 137 130 128 118 112 111
217 168 194 263 324 303 313 258 202 237 244 120 138 152 163 174 184 188 188 191 185 179 184 179 183 183 188 182 176 175 177 181 179 183 188 181 179 177 173 167 155 160 161 159 158 141 130 129 124
205 203 180 255 350 311 295 277 144 260 122 129 148 163 172 179 187 188 201 193 196 195 191 184 188 193 192 187 190 187 185 187 189 195 190 182 183 184 186 184 178 184 178 174 177 170 166 154 151
144 140 179 203 196 276 227 280 220 211 148 153 161 167 176 190 193 193 201 195 195 198 193 193 185 192 193 192 194 197 197 193 194 199 194 187 197 194 191 188 186 192 195 197 195 197 184 171 156
144 124 162 205 177 222 185 242 218 237 167 182 171 174 181 199 205 206 199 202 193 197 196 197 192 191 196 196 194 194 199 199 202 204 196 193 200 201 196 194 195 202 207 203 185 179 189 193 195
193 156 198 255 204 138 194 237 232 240 178 190 183 187 187 192 206 216 201 202 200 197 199 196 199 200 200 197 194 192 202 202 206 207 206 204 204 205 203 201 203 207 210 196 194 200 210 211 208
152 193 191 213 203 193 215 242 279 227 165 193 201 199 191 187 206 210 202 206 203 200 200 204 200 205 206 210 206 197 203 213 211 211 212 214 212 209 208 208 209 211 212 207 209 209 210 209 195
166 196 196 207 188 159 215 217 237 246 221 219 228 210 206 197 204 199 206 208 204 202 201 206 206 208 204 206 208 207 206 208 216 215 219 221 218 214 213 212 213 215 217 215 213 217 217 220 215
197 208 210 24 158 182 208 244 245 232 218 205 211 225 212 209 200 193 196 202 196 201 204 207 210 209 209 208 210 213 213 214 217 215 217 223 226 219 218 215 214 215 217 217 218 218 218 226 221
223 205 230 160 137 348 65 286 236 242 235 219 218 210 218 193 200 192 190 194 194 198 204 209 211 213 211 212 212 216 224 222 219 220 221 222 225 224 225 222 219 217 218 214 217 220 221 226 223
216 179 234 185 146 194 163 268 256 219 224 222 228 212 219 208 192 197 193 195 197 203 207 208 211 211 212 213 208 205 206 207 214 217 220 222 223 225 229 228 225 223 223 225 224 225 224 223 227
214 138 139 199 107 119 210 185 266 227 237 232 232 222 209 213 200 186 200 199 203 199 204 208 211 211 210 210 210 208 211 216 215 216 224 226 224 226 229 230 229 228 228 229 232 231 230 230 233
149 99 52 29 86 244 187 176 261 216 214 223 225 224 218 208 213 202 202 206 204 202 203 206 208 212 214 214 212 212 214 213 213 216 223 226 226 227 230 233 234 234 233 234 234 237 238 239 239
135 164 124 187 196 234 232 186 237 229 227 178 201 226 221 221 211 209 198 196 200 198 203 206 208 212 212 213 214 217 220 218 219 219 221 218 223 226 231 233 234 235 236 237 239 240 239 237 237
177 175 154 192 186 196 306 221 242 233 253 237 227 256 204 151 214 213 212 198 200 203 204 203 206 212 211 213 220 222 222 221 222 226 224 223 226 229 234 237 236 237 237 238 239 240 240 237 237
180 171 136 100 27 88 214 286 298 257 255 253 237 232 193 174 184 206 203 210 208 211 210 209 211 219 218 219 220 219 222 222 225 228 229 231 236 237 239 241 240 238 238 238 238 238 240 238 235
178 152 165 131 143 221 257 261 236 254 223 229 230 217 212 215 192 166 189 205 212 214 218 217 220 225 226 224 226 226 228 229 230 231 232 232 235 238 240 241 241 241 243 243 242 241 240 237 233
162 191 187 121 159 161 154 254 218 220 177 175 198 203 195 185 153 155 167 190 215 219 218 218 220 226 232 233 232 232 234 234 236 235 236 238 239 240 241 244 248 240 246 246 245 241 241 233 228
158 185 158 177 211 205 140 268 248 197 178 155 150 137 140 154 170 173 175 195 206 214 217 221 225 228 231 233 232 234 237 237 236 238 240 241 241 247 250 250 245 247 246 245 246 242 238 232 223